This demonstration page uses our WeatherBlox Daily Observations layout. Learn more.

41.55636, -103.73856

Hourly Observations for May 8, 2018

Temp ( °F °C ) Dew Point ( °F °C ) Humidity (%) Winds ( mph kmh ) Pressure ( in mb ) Visibility ( mi km ) Precip ( " mm )
12:58 am 00:58 Clear 55 12.7 40 4.2 57 57 N 20 31 29.88 1012 10 16.0934 N/A
1:58 am 01:58 Mostly Cloudy 52 11.1 43 6 71 71 N 17 28 29.93 1014 10 16.0934 N/A
2:58 am 02:58 Mostly Clear 51 10.5 42 5.8 73 73 N 16 26 29.93 1014 10 16.0934 N/A
3:58 am 03:58 Clear 47 8.1 41 5.2 82 82 NNW 12 19 29.96 1015 10 16.0934 N/A
4:58 am 04:58 Clear 47 8.1 42 5.6 84 84 NNW 15 24 29.96 1015 10 16.0934 N/A
5:58 am 05:58 Sunny 45 7.3 42 5.5 88 88 NW 13 20 29.99 1016 10 16.0934 N/A
6:58 am 06:58 Sunny 51 10.4 44 6.9 79 79 NW 10 17 30.01 1016 10 16.0934 N/A
7:58 am 07:58 Sunny 56 13.1 45 7.2 68 68 NW 14 22 30.01 1016 10 16.0934 N/A
8:58 am 08:58 Sunny 61 15.9 43 6.2 53 53 NNW 17 28 30.01 1016 10 16.0934 N/A
9:58 am 09:58 Sunny 64 17.7 41 5.2 44 44 N 17 28 30.01 1016 10 16.0934 N/A
10:58 am 10:58 Sunny 67 19.4 39 4 36 36 N 20 31 30.03 1017 10 16.0934 N/A
11:58 am 11:58 Sunny 69 20.5 38 3.2 32 32 NNW 15 24 30.01 1016 10 16.0934 N/A
12:58 pm 12:58 Sunny 70 21.1 40 4.3 33 33 N 7 11 29.99 1016 10 16.0934 N/A
1:58 pm 13:58 Sunny 71 21.7 40 4.4 32 32 NNW 10 17 29.98 1015 10 16.0934 N/A
2:58 pm 14:58 Mostly Sunny 72 22.1 39 3.8 30 30 NW 15 24 29.98 1015 10 16.0934 N/A
3:58 pm 15:58 Sunny 72 22.4 40 4.3 31 31 N 15 24 29.97 1015 10 16.0934 N/A
4:58 pm 16:58 Mostly Sunny 72 22.4 39 3.8 30 30 N 16 26 29.96 1015 10 16.0934 N/A
5:58 pm 17:58 Sunny 71 21.6 40 4.2 32 32 N 15 24 29.96 1015 10 16.0934 N/A
6:58 pm 18:58 Sunny 68 19.9 39 4 35 35 N 13 20 29.96 1015 10 16.0934 N/A
7:58 pm 19:58 Sunny 58 14.2 42 5.6 56 56 NNE 9 15 29.98 1015 10 16.0934 N/A
8:58 pm 20:58 Clear 57 13.7 41 5.1 56 56 N 6 9 29.99 1016 10 16.0934 N/A
9:58 pm 21:58 Clear 54 12.3 41 5.2 62 62 N 5 7 30 1016 10 16.0934 N/A
10:58 pm 22:58 Clear 52 10.9 40 4.7 66 66 NNE 6 9 30.01 1016 10 16.0934 N/A
11:58 pm 23:58 Clear 52 11.1 40 4.7 65 65 Calm 30.01 1016 10 16.0934 N/A

Powered by AerisWeather